contact:dominique.lefevre@mio.osupytheas.fr, maurice.libes@osupytheas.fr, didier.mallarino@osupytheas.fr
Project:EMSO http://www.emso-fr.org/EMSO-France
Depth: 2436.0 m
Title:EMSO Ligure Ouest : Data MII capteur MICROCAT
DateTime_Computer,Latitude,Longitude,Temperature,Conductivity,Pressure,DateTime_Instrument
DateTime_Computer,Latitude,Longitude,degC,S m-1,dbar,DateTime_Instrument
2022-10-16T00:00:25Z,42.805,6.029,13.3029,4.60130,2470.637,2022-10-16T02:02:20Z
2022-10-16T00:03:28Z,42.805,6.029,13.3024,4.60132,2470.646,2022-10-16T02:05:24Z
2022-10-16T00:06:31Z,42.805,6.029,13.3029,4.60124,2470.637,2022-10-16T02:08:27Z
2022-10-16T00:09:35Z,42.805,6.029,13.3039,4.60118,2470.624,2022-10-16T02:11:30Z
2022-10-16T00:12:38Z,42.805,6.029,13.3032,4.60140,2470.646,2022-10-16T02:14:33Z
2022-10-16T00:15:41Z,42.805,6.029,13.3044,4.60125,2470.624,2022-10-16T02:17:36Z
2022-10-16T00:18:44Z,42.805,6.029,13.3046,4.60137,2470.624,2022-10-16T02:20:39Z
2022-10-16T00:21:47Z,42.805,6.029,13.3040,4.60134,2470.624,2022-10-16T02:23:42Z
2022-10-16T00:24:50Z,42.805,6.029,13.3039,4.60122,2470.614,2022-10-16T02:26:45Z
2022-10-16T00:27:53Z,42.805,6.029,13.3034,4.60127,2470.624,2022-10-16T02:29:48Z
2022-10-16T00:30:56Z,42.805,6.029,13.3024,4.60116,2470.6,2022-10-16T02:32:51Z
2022-10-16T00:33:59Z,42.805,6.029,13.3052,4.60123,2470.624,2022-10-16T02:35:54Z
2022-10-16T00:37:02Z,42.805,6.029,13.3037,4.60135,2470.614,2022-10-16T02:38:57Z
2022-10-16T00:40:05Z,42.805,6.029,13.3021,4.60134,2470.624,2022-10-16T02:42:01Z
2022-10-16T00:43:08Z,42.805,6.029,13.3024,4.60129,2470.614,2022-10-16T02:45:04Z
2022-10-16T00:46:11Z,42.805,6.029,13.3028,4.60109,2470.6,2022-10-16T02:48:07Z
2022-10-16T00:49:15Z,42.805,6.029,13.3026,4.60113,2470.637,2022-10-16T02:51:10Z
2022-10-16T00:52:18Z,42.805,6.029,13.3023,4.60125,2470.6,2022-10-16T02:54:13Z
2022-10-16T00:55:21Z,42.805,6.029,13.3030,4.60117,2470.577,2022-10-16T02:57:16Z
2022-10-16T00:58:24Z,42.805,6.029,13.3035,4.60125,2470.624,2022-10-16T03:00:19Z
2022-10-16T01:01:27Z,42.805,6.029,13.3039,4.60127,2470.6,2022-10-16T03:03:22Z
2022-10-16T01:04:30Z,42.805,6.029,13.3028,4.60112,2470.6,2022-10-16T03:06:25Z
2022-10-16T01:07:33Z,42.805,6.029,13.3031,4.60122,2470.6,2022-10-16T03:09:28Z
2022-10-16T01:10:36Z,42.805,6.029,13.3028,4.60117,2470.624,2022-10-16T03:12:31Z
2022-10-16T01:13:39Z,42.805,6.029,13.3029,4.60121,2470.624,2022-10-16T03:15:34Z
2022-10-16T01:16:42Z,42.805,6.029,13.3026,4.60108,2470.6,2022-10-16T03:18:37Z
2022-10-16T01:19:45Z,42.805,6.029,13.3032,4.60110,2470.577,2022-10-16T03:21:41Z
2022-10-16T01:22:48Z,42.805,6.029,13.3026,4.60121,2470.591,2022-10-16T03:24:44Z
2022-10-16T01:25:51Z,42.805,6.029,13.3039,4.60122,2470.6,2022-10-16T03:27:47Z
2022-10-16T01:28:55Z,42.805,6.029,13.3039,4.60115,2470.614,2022-10-16T03:30:50Z
2022-10-16T01:31:58Z,42.805,6.029,13.3025,4.60101,2470.6,2022-10-16T03:33:53Z
2022-10-16T01:35:01Z,42.805,6.029,13.3024,4.60114,2470.637,2022-10-16T03:36:56Z
2022-10-16T01:38:04Z,42.805,6.029,13.3028,4.60110,2470.6,2022-10-16T03:39:59Z
2022-10-16T01:41:07Z,42.805,6.029,13.3026,4.60115,2470.624,2022-10-16T03:43:02Z
2022-10-16T01:44:10Z,42.805,6.029,13.3026,4.60107,2470.591,2022-10-16T03:46:05Z
2022-10-16T01:47:13Z,42.805,6.029,13.3031,4.60115,2470.591,2022-10-16T03:49:08Z
2022-10-16T01:50:16Z,42.805,6.029,13.3039,4.60119,2470.591,2022-10-16T03:52:11Z
2022-10-16T01:53:19Z,42.805,6.029,13.3036,4.60113,2470.624,2022-10-16T03:55:14Z
2022-10-16T01:56:22Z,42.805,6.029,13.3026,4.60093,2470.6,2022-10-16T03:58:17Z
2022-10-16T01:59:25Z,42.805,6.029,13.3032,4.60104,2470.6,2022-10-16T04:01:21Z
2022-10-16T02:02:28Z,42.805,6.029,13.3027,4.60104,2470.624,2022-10-16T04:04:24Z
2022-10-16T02:05:31Z,42.805,6.029,13.3028,4.60123,2470.577,2022-10-16T04:07:27Z
2022-10-16T02:08:35Z,42.805,6.029,13.3028,4.60150,2470.614,2022-10-16T04:10:30Z
2022-10-16T02:11:38Z,42.805,6.029,13.3026,4.60127,2470.6,2022-10-16T04:13:33Z
2022-10-16T02:14:41Z,42.805,6.029,13.3021,4.60095,2470.6,2022-10-16T04:16:36Z
2022-10-16T02:17:44Z,42.805,6.029,13.3026,4.60124,2470.577,2022-10-16T04:19:39Z
2022-10-16T02:20:47Z,42.805,6.029,13.3017,4.60088,2470.577,2022-10-16T04:22:42Z
2022-10-16T02:23:50Z,42.805,6.029,13.3027,4.60097,2470.577,2022-10-16T04:25:45Z
2022-10-16T02:26:53Z,42.805,6.029,13.3027,4.60117,2470.6,2022-10-16T04:28:48Z
2022-10-16T02:29:56Z,42.805,6.029,13.3031,4.60107,2470.577,2022-10-16T04:31:51Z
2022-10-16T02:32:59Z,42.805,6.029,13.3028,4.60106,2470.6,2022-10-16T04:34:54Z
2022-10-16T02:36:02Z,42.805,6.029,13.3022,4.60119,2470.591,2022-10-16T04:37:58Z
2022-10-16T02:39:05Z,42.805,6.029,13.3021,4.60108,2470.6,2022-10-16T04:41:01Z
2022-10-16T02:42:08Z,42.805,6.029,13.3027,4.60117,2470.6,2022-10-16T04:44:04Z
2022-10-16T02:45:12Z,42.805,6.029,13.3026,4.60111,2470.6,2022-10-16T04:47:07Z
2022-10-16T02:48:15Z,42.805,6.029,13.3027,4.60104,2470.577,2022-10-16T04:50:10Z
2022-10-16T02:51:18Z,42.805,6.029,13.3020,4.60081,2470.591,2022-10-16T04:53:13Z
2022-10-16T02:54:21Z,42.805,6.029,13.3019,4.60098,2470.6,2022-10-16T04:56:16Z
2022-10-16T02:57:24Z,42.805,6.029,13.3026,4.60089,2470.591,2022-10-16T04:59:19Z
2022-10-16T03:00:27Z,42.805,6.029,13.3014,4.60081,2470.591,2022-10-16T05:02:22Z
2022-10-16T03:03:30Z,42.805,6.029,13.3025,4.60087,2470.6,2022-10-16T05:05:25Z
2022-10-16T03:06:33Z,42.805,6.029,13.3022,4.60093,2470.577,2022-10-16T05:08:28Z
2022-10-16T03:09:36Z,42.805,6.029,13.3019,4.60099,2470.539,2022-10-16T05:11:31Z
2022-10-16T03:12:39Z,42.805,6.029,13.3021,4.60097,2470.577,2022-10-16T05:14:34Z
2022-10-16T03:15:42Z,42.805,6.029,13.3021,4.60104,2470.577,2022-10-16T05:17:38Z
2022-10-16T03:18:45Z,42.805,6.029,13.3026,4.60089,2470.614,2022-10-16T05:20:41Z
2022-10-16T03:21:48Z,42.805,6.029,13.3024,4.60103,2470.577,2022-10-16T05:23:44Z
2022-10-16T03:24:52Z,42.805,6.029,13.3020,4.60079,2470.6,2022-10-16T05:26:47Z
2022-10-16T03:27:55Z,42.805,6.029,13.3026,4.60094,2470.6,2022-10-16T05:29:50Z
2022-10-16T03:30:58Z,42.805,6.029,13.3022,4.60089,2470.577,2022-10-16T05:32:53Z
2022-10-16T03:34:01Z,42.805,6.029,13.3031,4.60109,2470.6,2022-10-16T05:35:56Z
2022-10-16T03:37:04Z,42.805,6.029,13.3026,4.60105,2470.591,2022-10-16T05:38:59Z
2022-10-16T03:40:07Z,42.805,6.029,13.3023,4.60088,2470.591,2022-10-16T05:42:02Z
2022-10-16T03:43:10Z,42.805,6.029,13.3018,4.60087,2470.577,2022-10-16T05:45:05Z
2022-10-16T03:46:13Z,42.805,6.029,13.3018,4.60085,2470.553,2022-10-16T05:48:08Z
2022-10-16T03:49:16Z,42.805,6.029,13.3022,4.60088,2470.6,2022-10-16T05:51:11Z
2022-10-16T03:52:19Z,42.805,6.029,13.3023,4.60103,2470.567,2022-10-16T05:54:14Z
2022-10-16T03:55:22Z,42.805,6.029,13.3024,4.60084,2470.553,2022-10-16T05:57:18Z
2022-10-16T03:58:25Z,42.805,6.029,13.3021,4.60090,2470.591,2022-10-16T06:00:21Z
2022-10-16T04:01:28Z,42.805,6.029,13.3017,4.60081,2470.577,2022-10-16T06:03:24Z
2022-10-16T04:04:32Z,42.805,6.029,13.3011,4.60092,2470.6,2022-10-16T06:06:27Z
2022-10-16T04:07:35Z,42.805,6.029,13.3021,4.60091,2470.577,2022-10-16T06:09:30Z
2022-10-16T04:10:38Z,42.805,6.029,13.3020,4.60087,2470.553,2022-10-16T06:12:33Z
2022-10-16T04:13:41Z,42.805,6.029,13.3017,4.60094,2470.577,2022-10-16T06:15:36Z
2022-10-16T04:16:44Z,42.805,6.029,13.3012,4.60077,2470.6,2022-10-16T06:18:39Z
2022-10-16T04:19:47Z,42.805,6.029,13.3028,4.60082,2470.567,2022-10-16T06:21:42Z
2022-10-16T04:22:50Z,42.805,6.029,13.3026,4.60090,2470.577,2022-10-16T06:24:45Z
2022-10-16T04:25:53Z,42.805,6.029,13.3025,4.60089,2470.577,2022-10-16T06:27:48Z
2022-10-16T04:28:56Z,42.805,6.029,13.3026,4.60109,2470.577,2022-10-16T06:30:51Z
2022-10-16T04:31:59Z,42.805,6.029,13.3021,4.60084,2470.624,2022-10-16T06:33:54Z
2022-10-16T04:35:02Z,42.805,6.029,13.3028,4.60125,2470.614,2022-10-16T06:36:58Z
2022-10-16T04:38:05Z,42.805,6.029,13.3036,4.60099,2470.614,2022-10-16T06:40:01Z
2022-10-16T04:41:08Z,42.805,6.029,13.3036,4.60119,2470.6,2022-10-16T06:43:04Z
2022-10-16T04:44:12Z,42.805,6.029,13.3028,4.60127,2470.553,2022-10-16T06:46:07Z
2022-10-16T04:47:15Z,42.805,6.029,13.3028,4.60109,2470.6,2022-10-16T06:49:10Z
2022-10-16T04:50:18Z,42.805,6.029,13.3015,4.60083,2470.563,2022-10-16T06:52:13Z
2022-10-16T04:53:21Z,42.805,6.029,13.3024,4.60083,2470.577,2022-10-16T06:55:16Z
2022-10-16T04:56:24Z,42.805,6.029,13.3046,4.60102,2470.614,2022-10-16T06:58:19Z
2022-10-16T04:59:27Z,42.805,6.029,13.3036,4.60099,2470.567,2022-10-16T07:01:22Z
2022-10-16T05:02:30Z,42.805,6.029,13.3024,4.60117,2470.591,2022-10-16T07:04:25Z
2022-10-16T05:05:33Z,42.805,6.029,13.3018,4.60084,2470.577,2022-10-16T07:07:28Z
2022-10-16T05:08:36Z,42.805,6.029,13.3021,4.60106,2470.577,2022-10-16T07:10:31Z
2022-10-16T05:11:39Z,42.805,6.029,13.3035,4.60102,2470.6,2022-10-16T07:13:34Z
2022-10-16T05:14:42Z,42.805,6.029,13.3033,4.60091,2470.6,2022-10-16T07:16:38Z
2022-10-16T05:17:45Z,42.805,6.029,13.3021,4.60083,2470.614,2022-10-16T07:19:41Z
2022-10-16T05:20:48Z,42.805,6.029,13.3019,4.60111,2470.591,2022-10-16T07:22:44Z
2022-10-16T05:23:52Z,42.805,6.029,13.3024,4.60077,2470.577,2022-10-16T07:25:47Z
2022-10-16T05:26:55Z,42.805,6.029,13.3031,4.60114,2470.624,2022-10-16T07:28:50Z
2022-10-16T05:29:58Z,42.805,6.029,13.3035,4.60125,2470.591,2022-10-16T07:31:53Z
2022-10-16T05:33:01Z,42.805,6.029,13.3015,4.60090,2470.6,2022-10-16T07:34:56Z
2022-10-16T05:36:04Z,42.805,6.029,13.3018,4.60088,2470.6,2022-10-16T07:37:59Z
2022-10-16T05:39:07Z,42.805,6.029,13.3024,4.60099,2470.577,2022-10-16T07:41:02Z
2022-10-16T05:42:10Z,42.805,6.029,13.3039,4.60118,2470.614,2022-10-16T07:44:05Z
2022-10-16T05:45:13Z,42.805,6.029,13.3031,4.60098,2470.614,2022-10-16T07:47:08Z
2022-10-16T05:48:16Z,42.805,6.029,13.3023,4.60104,2470.591,2022-10-16T07:50:11Z
2022-10-16T05:51:19Z,42.805,6.029,13.3028,4.60109,2470.577,2022-10-16T07:53:15Z
2022-10-16T05:54:22Z,42.805,6.029,13.3021,4.60098,2470.577,2022-10-16T07:56:18Z
2022-10-16T05:57:25Z,42.805,6.029,13.3030,4.60075,2470.577,2022-10-16T07:59:21Z
2022-10-16T06:00:28Z,42.805,6.029,13.3031,4.60099,2470.577,2022-10-16T08:02:24Z
2022-10-16T06:03:32Z,42.805,6.029,13.3021,4.60110,2470.591,2022-10-16T08:05:27Z
2022-10-16T06:06:35Z,42.805,6.029,13.3026,4.60098,2470.614,2022-10-16T08:08:30Z
2022-10-16T06:09:38Z,42.805,6.029,13.3019,4.60088,2470.6,2022-10-16T08:11:33Z
2022-10-16T06:12:41Z,42.805,6.029,13.3027,4.60080,2470.591,2022-10-16T08:14:36Z
2022-10-16T06:15:44Z,42.805,6.029,13.3016,4.60092,2470.553,2022-10-16T08:17:39Z
2022-10-16T06:18:47Z,42.805,6.029,13.3026,4.60110,2470.614,2022-10-16T08:20:42Z
2022-10-16T06:21:50Z,42.805,6.029,13.3026,4.60104,2470.637,2022-10-16T08:23:45Z
2022-10-16T06:24:53Z,42.805,6.029,13.3034,4.60099,2470.614,2022-10-16T08:26:48Z
2022-10-16T06:27:56Z,42.805,6.029,13.3021,4.60119,2470.614,2022-10-16T08:29:51Z
2022-10-16T06:30:59Z,42.805,6.029,13.3021,4.60106,2470.6,2022-10-16T08:32:55Z
2022-10-16T06:34:02Z,42.805,6.029,13.3024,4.60084,2470.6,2022-10-16T08:35:58Z
2022-10-16T06:37:05Z,42.805,6.029,13.3029,4.60118,2470.614,2022-10-16T08:39:01Z
2022-10-16T06:40:09Z,42.805,6.029,13.3024,4.60090,2470.6,2022-10-16T08:42:04Z
2022-10-16T06:43:12Z,42.805,6.029,13.3023,4.60097,2470.6,2022-10-16T08:45:07Z
2022-10-16T06:46:15Z,42.805,6.029,13.3025,4.60092,2470.591,2022-10-16T08:48:10Z
2022-10-16T06:49:18Z,42.805,6.029,13.3024,4.60097,2470.586,2022-10-16T08:51:13Z
2022-10-16T06:52:21Z,42.805,6.029,13.3019,4.60079,2470.6,2022-10-16T08:54:16Z
2022-10-16T06:55:24Z,42.805,6.029,13.3025,4.60085,2470.637,2022-10-16T08:57:19Z
2022-10-16T06:58:27Z,42.805,6.029,13.3029,4.60097,2470.614,2022-10-16T09:00:22Z
2022-10-16T07:01:30Z,42.805,6.029,13.3031,4.60115,2470.6,2022-10-16T09:03:25Z
2022-10-16T07:04:33Z,42.805,6.029,13.3019,4.60079,2470.624,2022-10-16T09:06:28Z
2022-10-16T07:07:36Z,42.805,6.029,13.3032,4.60101,2470.637,2022-10-16T09:09:31Z
2022-10-16T07:10:39Z,42.805,6.029,13.3038,4.60127,2470.637,2022-10-16T09:12:34Z
2022-10-16T07:13:42Z,42.805,6.029,13.3029,4.60098,2470.614,2022-10-16T09:15:38Z
2022-10-16T07:16:45Z,42.805,6.029,13.3021,4.60103,2470.661,2022-10-16T09:18:41Z
2022-10-16T07:19:49Z,42.805,6.029,13.3026,4.60102,2470.637,2022-10-16T09:21:44Z
2022-10-16T07:22:52Z,42.805,6.029,13.3040,4.60110,2470.624,2022-10-16T09:24:47Z
2022-10-16T07:25:55Z,42.805,6.029,13.3013,4.60082,2470.661,2022-10-16T09:27:50Z
2022-10-16T07:28:58Z,42.805,6.029,13.3021,4.60081,2470.646,2022-10-16T09:30:53Z
2022-10-16T07:32:01Z,42.805,6.029,13.3027,4.60087,2470.67,2022-10-16T09:33:56Z
2022-10-16T07:35:04Z,42.805,6.029,13.3020,4.60077,2470.661,2022-10-16T09:36:59Z
2022-10-16T07:38:07Z,42.805,6.029,13.3021,4.60084,2470.661,2022-10-16T09:40:02Z
2022-10-16T07:41:10Z,42.805,6.029,13.3020,4.60099,2470.646,2022-10-16T09:43:05Z
2022-10-16T07:44:13Z,42.805,6.029,13.3030,4.60097,2470.624,2022-10-16T09:46:08Z
2022-10-16T07:47:16Z,42.805,6.029,13.3046,4.60099,2470.646,2022-10-16T09:49:11Z
2022-10-16T07:50:19Z,42.805,6.029,13.3034,4.60113,2470.646,2022-10-16T09:52:15Z
2022-10-16T07:53:22Z,42.805,6.029,13.3031,4.60095,2470.624,2022-10-16T09:55:18Z
2022-10-16T07:56:25Z,42.805,6.029,13.3016,4.60083,2470.646,2022-10-16T09:58:21Z
2022-10-16T07:59:29Z,42.805,6.029,13.3019,4.60105,2470.67,2022-10-16T10:01:24Z
2022-10-16T08:02:32Z,42.805,6.029,13.3016,4.60087,2470.646,2022-10-16T10:04:27Z
2022-10-16T08:05:35Z,42.805,6.029,13.3019,4.60069,2470.67,2022-10-16T10:07:30Z
2022-10-16T08:08:38Z,42.805,6.029,13.3031,4.60085,2470.646,2022-10-16T10:10:33Z
2022-10-16T08:11:41Z,42.805,6.029,13.3015,4.60073,2470.67,2022-10-16T10:13:36Z
2022-10-16T08:14:44Z,42.805,6.029,13.3015,4.60097,2470.684,2022-10-16T10:16:39Z
2022-10-16T08:17:47Z,42.805,6.029,13.3024,4.60098,2470.633,2022-10-16T10:19:42Z
2022-10-16T08:20:50Z,42.805,6.029,13.3027,4.60084,2470.693,2022-10-16T10:22:45Z
2022-10-16T08:23:53Z,42.805,6.029,13.3025,4.60081,2470.646,2022-10-16T10:25:48Z
2022-10-16T08:26:56Z,42.805,6.029,13.3021,4.60081,2470.67,2022-10-16T10:28:51Z
2022-10-16T08:29:59Z,42.805,6.029,13.3039,4.60098,2470.67,2022-10-16T10:31:55Z
2022-10-16T08:33:02Z,42.805,6.029,13.3039,4.60115,2470.67,2022-10-16T10:34:58Z
2022-10-16T08:36:06Z,42.805,6.029,13.3021,4.60086,2470.684,2022-10-16T10:38:01Z
2022-10-16T08:39:09Z,42.805,6.029,13.3030,4.60108,2470.67,2022-10-16T10:41:04Z
2022-10-16T08:42:12Z,42.805,6.029,13.3025,4.60087,2470.67,2022-10-16T10:44:07Z
2022-10-16T08:45:15Z,42.805,6.029,13.3026,4.60097,2470.693,2022-10-16T10:47:10Z
2022-10-16T08:48:18Z,42.805,6.029,13.3034,4.60092,2470.707,2022-10-16T10:50:13Z
2022-10-16T08:51:21Z,42.805,6.029,13.3019,4.60107,2470.73,2022-10-16T10:53:16Z
2022-10-16T08:54:24Z,42.805,6.029,13.3035,4.60105,2470.717,2022-10-16T10:56:19Z
2022-10-16T08:57:27Z,42.805,6.029,13.3020,4.60088,2470.67,2022-10-16T10:59:22Z
2022-10-16T09:00:30Z,42.805,6.029,13.3025,4.60095,2470.717,2022-10-16T11:02:25Z
2022-10-16T09:03:33Z,42.805,6.029,13.3025,4.60075,2470.717,2022-10-16T11:05:28Z
2022-10-16T09:06:36Z,42.805,6.029,13.3019,4.60078,2470.693,2022-10-16T11:08:32Z
2022-10-16T09:09:39Z,42.805,6.029,13.3022,4.60080,2470.73,2022-10-16T11:11:35Z
2022-10-16T09:12:42Z,42.805,6.029,13.3022,4.60074,2470.754,2022-10-16T11:14:38Z
2022-10-16T09:15:46Z,42.805,6.029,13.3032,4.60103,2470.73,2022-10-16T11:17:41Z
2022-10-16T09:18:49Z,42.805,6.029,13.3023,4.60078,2470.717,2022-10-16T11:20:44Z
2022-10-16T09:21:52Z,42.805,6.029,13.3021,4.60102,2470.693,2022-10-16T11:23:47Z
2022-10-16T09:24:55Z,42.805,6.029,13.3050,4.60100,2470.73,2022-10-16T11:26:50Z
2022-10-16T09:27:58Z,42.805,6.029,13.3041,4.60112,2470.717,2022-10-16T11:29:53Z
2022-10-16T09:31:01Z,42.805,6.029,13.3046,4.60127,2470.717,2022-10-16T11:32:56Z
2022-10-16T09:34:04Z,42.805,6.029,13.3036,4.60133,2470.717,2022-10-16T11:35:59Z
2022-10-16T09:37:07Z,42.805,6.029,13.3021,4.60105,2470.717,2022-10-16T11:39:02Z
2022-10-16T09:40:10Z,42.805,6.029,13.3023,4.60110,2470.73,2022-10-16T11:42:05Z
2022-10-16T09:43:13Z,42.805,6.029,13.3021,4.60094,2470.74,2022-10-16T11:45:09Z
2022-10-16T09:46:16Z,42.805,6.029,13.3024,4.60110,2470.74,2022-10-16T11:48:12Z
2022-10-16T09:49:19Z,42.805,6.029,13.3043,4.60115,2470.74,2022-10-16T11:51:15Z
2022-10-16T09:52:23Z,42.805,6.029,13.3043,4.60092,2470.763,2022-10-16T11:54:18Z
2022-10-16T09:55:26Z,42.805,6.029,13.3038,4.60123,2470.74,2022-10-16T11:57:21Z
2022-10-16T09:58:29Z,42.805,6.029,13.3021,4.60127,2470.717,2022-10-16T12:00:24Z
2022-10-16T10:01:32Z,42.805,6.029,13.3034,4.60101,2470.754,2022-10-16T12:03:27Z
2022-10-16T10:04:35Z,42.805,6.029,13.3031,4.60118,2470.717,2022-10-16T12:06:30Z
2022-10-16T10:07:38Z,42.805,6.029,13.3022,4.60094,2470.754,2022-10-16T12:09:33Z
2022-10-16T10:10:41Z,42.805,6.029,13.3026,4.60091,2470.74,2022-10-16T12:12:36Z
2022-10-16T10:13:44Z,42.805,6.029,13.3024,4.60104,2470.754,2022-10-16T12:15:39Z
2022-10-16T10:16:47Z,42.805,6.029,13.3056,4.60127,2470.763,2022-10-16T12:18:42Z
2022-10-16T10:19:50Z,42.805,6.029,13.3046,4.60102,2470.754,2022-10-16T12:21:46Z
2022-10-16T10:22:53Z,42.805,6.029,13.3044,4.60137,2470.754,2022-10-16T12:24:49Z
2022-10-16T10:25:56Z,42.805,6.029,13.3051,4.60119,2470.763,2022-10-16T12:27:52Z
2022-10-16T10:29:00Z,42.805,6.029,13.3031,4.60102,2470.763,2022-10-16T12:30:55Z
2022-10-16T10:32:03Z,42.805,6.029,13.3024,4.60091,2470.717,2022-10-16T12:33:58Z
2022-10-16T10:35:06Z,42.805,6.029,13.3021,4.60090,2470.693,2022-10-16T12:37:01Z
2022-10-16T10:38:09Z,42.805,6.029,13.3021,4.60083,2470.754,2022-10-16T12:40:04Z
2022-10-16T10:41:12Z,42.805,6.029,13.3026,4.60106,2470.74,2022-10-16T12:43:07Z
2022-10-16T10:44:15Z,42.805,6.029,13.3032,4.60108,2470.73,2022-10-16T12:46:10Z
2022-10-16T10:47:18Z,42.805,6.029,13.3048,4.60114,2470.74,2022-10-16T12:49:13Z
2022-10-16T10:50:21Z,42.805,6.029,13.3048,4.60102,2470.777,2022-10-16T12:52:16Z
2022-10-16T10:53:24Z,42.805,6.029,13.3046,4.60110,2470.763,2022-10-16T12:55:19Z
2022-10-16T10:56:27Z,42.805,6.029,13.3052,4.60104,2470.777,2022-10-16T12:58:23Z
2022-10-16T10:59:30Z,42.805,6.029,13.3043,4.60104,2470.754,2022-10-16T13:01:26Z
2022-10-16T11:02:33Z,42.805,6.029,13.3028,4.60111,2470.763,2022-10-16T13:04:29Z
2022-10-16T11:05:37Z,42.805,6.029,13.3034,4.60106,2470.763,2022-10-16T13:07:32Z
2022-10-16T11:08:40Z,42.805,6.029,13.3032,4.60131,2470.754,2022-10-16T13:10:35Z
2022-10-16T11:11:43Z,42.805,6.029,13.3034,4.60119,2470.74,2022-10-16T13:13:38Z
2022-10-16T11:14:46Z,42.805,6.029,13.3052,4.60109,2470.754,2022-10-16T13:16:41Z
2022-10-16T11:17:49Z,42.805,6.029,13.3047,4.60138,2470.777,2022-10-16T13:19:44Z
2022-10-16T11:20:52Z,42.805,6.029,13.3058,4.60137,2470.754,2022-10-16T13:22:47Z
2022-10-16T11:23:55Z,42.805,6.029,13.3085,4.60180,2470.763,2022-10-16T13:25:50Z
2022-10-16T11:26:58Z,42.805,6.029,13.3083,4.60156,2470.74,2022-10-16T13:28:53Z
2022-10-16T11:30:01Z,42.805,6.029,13.3056,4.60161,2470.74,2022-10-16T13:31:56Z
2022-10-16T11:33:04Z,42.805,6.029,13.3076,4.60142,2470.717,2022-10-16T13:35:00Z
2022-10-16T11:36:07Z,42.805,6.029,13.3042,4.60135,2470.754,2022-10-16T13:38:03Z
2022-10-16T11:39:10Z,42.805,6.029,13.3049,4.60097,2470.693,2022-10-16T13:41:06Z
2022-10-16T11:42:14Z,42.805,6.029,13.3034,4.60135,2470.754,2022-10-16T13:44:09Z
2022-10-16T11:45:17Z,42.805,6.029,13.3023,4.60117,2470.73,2022-10-16T13:47:12Z
2022-10-16T11:48:20Z,42.805,6.029,13.3035,4.60140,2470.74,2022-10-16T13:50:15Z
2022-10-16T11:51:23Z,42.805,6.029,13.3036,4.60145,2470.777,2022-10-16T13:53:18Z
2022-10-16T11:54:26Z,42.805,6.029,13.3049,4.60107,2470.74,2022-10-16T13:56:21Z
2022-10-16T11:57:29Z,42.805,6.029,13.3043,4.60104,2470.74,2022-10-16T13:59:24Z
2022-10-16T12:00:32Z,42.805,6.029,13.3054,4.60107,2470.763,2022-10-16T14:02:27Z
2022-10-16T12:03:35Z,42.805,6.029,13.3026,4.60140,2470.74,2022-10-16T14:05:30Z
2022-10-16T12:06:38Z,42.805,6.029,13.3044,4.60127,2470.777,2022-10-16T14:08:33Z
2022-10-16T12:09:41Z,42.805,6.029,13.3058,4.60108,2470.74,2022-10-16T14:11:37Z
2022-10-16T12:12:44Z,42.805,6.029,13.3046,4.60104,2470.754,2022-10-16T14:14:40Z
2022-10-16T12:15:47Z,42.805,6.029,13.3064,4.60112,2470.754,2022-10-16T14:17:43Z
2022-10-16T12:18:51Z,42.805,6.029,13.3058,4.60125,2470.787,2022-10-16T14:20:46Z
2022-10-16T12:21:54Z,42.805,6.029,13.3040,4.60119,2470.754,2022-10-16T14:23:49Z
2022-10-16T12:24:57Z,42.805,6.029,13.3038,4.60119,2470.763,2022-10-16T14:26:52Z
2022-10-16T12:28:00Z,42.805,6.029,13.3024,4.60131,2470.754,2022-10-16T14:29:55Z
2022-10-16T12:31:03Z,42.805,6.029,13.3048,4.60139,2470.754,2022-10-16T14:32:58Z
2022-10-16T12:34:06Z,42.805,6.029,13.3031,4.60118,2470.693,2022-10-16T14:36:01Z
2022-10-16T12:37:09Z,42.805,6.029,13.3027,4.60140,2470.763,2022-10-16T14:39:04Z
2022-10-16T12:40:12Z,42.805,6.029,13.3042,4.60146,2470.73,2022-10-16T14:42:07Z
2022-10-16T12:43:15Z,42.805,6.029,13.3053,4.60106,2470.74,2022-10-16T14:45:10Z
2022-10-16T12:46:18Z,42.805,6.029,13.3041,4.60170,2470.74,2022-10-16T14:48:14Z
2022-10-16T12:49:21Z,42.805,6.029,13.3036,4.60143,2470.763,2022-10-16T14:51:17Z
2022-10-16T12:52:24Z,42.805,6.029,13.3028,4.60117,2470.74,2022-10-16T14:54:20Z
2022-10-16T12:55:27Z,42.805,6.029,13.3026,4.60104,2470.74,2022-10-16T14:57:23Z
2022-10-16T12:58:31Z,42.805,6.029,13.3020,4.60121,2470.73,2022-10-16T15:00:26Z
2022-10-16T13:01:34Z,42.805,6.029,13.3045,4.60117,2470.693,2022-10-16T15:03:29Z
2022-10-16T13:04:37Z,42.805,6.029,13.3043,4.60119,2470.754,2022-10-16T15:06:32Z
2022-10-16T13:07:40Z,42.805,6.029,13.3028,4.60102,2470.754,2022-10-16T15:09:35Z
2022-10-16T13:10:43Z,42.805,6.029,13.3037,4.60088,2470.73,2022-10-16T15:12:38Z
2022-10-16T13:13:46Z,42.805,6.029,13.3030,4.60130,2470.73,2022-10-16T15:15:41Z
2022-10-16T13:16:49Z,42.805,6.029,13.3021,4.60161,2470.717,2022-10-16T15:18:44Z
2022-10-16T13:19:52Z,42.805,6.029,13.3034,4.60122,2470.717,2022-10-16T15:21:47Z
2022-10-16T13:22:55Z,42.805,6.029,13.3029,4.60112,2470.74,2022-10-16T15:24:50Z
2022-10-16T13:25:58Z,42.805,6.029,13.3030,4.60125,2470.693,2022-10-16T15:27:54Z
2022-10-16T13:29:01Z,42.805,6.029,13.3029,4.60102,2470.74,2022-10-16T15:30:57Z
2022-10-16T13:32:04Z,42.805,6.029,13.3029,4.60122,2470.73,2022-10-16T15:34:00Z
2022-10-16T13:35:08Z,42.805,6.029,13.3028,4.60146,2470.74,2022-10-16T15:37:03Z
2022-10-16T13:38:11Z,42.805,6.029,13.3031,4.60096,2470.73,2022-10-16T15:40:06Z
2022-10-16T13:41:14Z,42.805,6.029,13.3029,4.60137,2470.717,2022-10-16T15:43:09Z
2022-10-16T13:44:17Z,42.805,6.029,13.3029,4.60114,2470.754,2022-10-16T15:46:12Z
2022-10-16T13:47:20Z,42.805,6.029,13.3027,4.60136,2470.74,2022-10-16T15:49:15Z
2022-10-16T13:50:23Z,42.805,6.029,13.3024,4.60119,2470.717,2022-10-16T15:52:18Z
2022-10-16T13:53:26Z,42.805,6.029,13.3031,4.60137,2470.693,2022-10-16T15:55:21Z
2022-10-16T13:56:29Z,42.805,6.029,13.3034,4.60084,2470.717,2022-10-16T15:58:24Z
2022-10-16T13:59:32Z,42.805,6.029,13.3027,4.60088,2470.74,2022-10-16T16:01:28Z
2022-10-16T14:02:35Z,42.805,6.029,13.3023,4.60107,2470.703,2022-10-16T16:04:31Z
2022-10-16T14:05:38Z,42.805,6.029,13.3046,4.60132,2470.73,2022-10-16T16:07:34Z
2022-10-16T14:08:41Z,42.805,6.029,13.3032,4.60107,2470.693,2022-10-16T16:10:37Z
2022-10-16T14:11:45Z,42.805,6.029,13.3039,4.60119,2470.73,2022-10-16T16:13:40Z
2022-10-16T14:14:48Z,42.805,6.029,13.3024,4.60141,2470.693,2022-10-16T16:16:43Z
2022-10-16T14:17:51Z,42.805,6.029,13.3040,4.60110,2470.693,2022-10-16T16:19:46Z
2022-10-16T14:20:54Z,42.805,6.029,13.3054,4.60145,2470.693,2022-10-16T16:22:49Z
2022-10-16T14:23:57Z,42.805,6.029,13.3033,4.60139,2470.717,2022-10-16T16:25:52Z
2022-10-16T14:27:00Z,42.805,6.029,13.3021,4.60097,2470.693,2022-10-16T16:28:55Z
2022-10-16T14:30:03Z,42.805,6.029,13.3024,4.60152,2470.73,2022-10-16T16:31:58Z
2022-10-16T14:33:06Z,42.805,6.029,13.3031,4.60122,2470.707,2022-10-16T16:35:01Z
2022-10-16T14:36:09Z,42.805,6.029,13.3042,4.60125,2470.684,2022-10-16T16:38:04Z
2022-10-16T14:39:12Z,42.805,6.029,13.3047,4.60108,2470.693,2022-10-16T16:41:08Z
2022-10-16T14:42:15Z,42.805,6.029,13.3040,4.60117,2470.74,2022-10-16T16:44:11Z
2022-10-16T14:45:18Z,42.805,6.029,13.3026,4.60150,2470.684,2022-10-16T16:47:14Z
2022-10-16T14:48:22Z,42.805,6.029,13.3027,4.60138,2470.693,2022-10-16T16:50:17Z
2022-10-16T14:51:25Z,42.805,6.029,13.3048,4.60135,2470.717,2022-10-16T16:53:20Z
2022-10-16T14:54:28Z,42.805,6.029,13.3035,4.60160,2470.693,2022-10-16T16:56:23Z
2022-10-16T14:57:31Z,42.805,6.029,13.3031,4.60148,2470.707,2022-10-16T16:59:26Z
2022-10-16T15:00:34Z,42.805,6.029,13.3038,4.60157,2470.707,2022-10-16T17:02:29Z